Hourly Weather Minsk

Today, 24 January, Sunday

Time Temperature Precipitation Wind Pressure Humidity
00:00 -1°C° 0 mm 5 mps 732 mmHg 95%
01:00 -2°C° 0 mm 5 mps 732 mmHg 95%
02:00 -2°C° 0 mm 5 mps 732 mmHg 95%
03:00 -2°C° 0 mm 5 mps 731 mmHg 95%
04:00 -4°C° 0 mm 5 mps 731 mmHg 96%
05:00 -4°C° 0 mm 5 mps 730 mmHg 96%
06:00 -2°C° 0 mm 5 mps 730 mmHg 96%
07:00 -2°C° 0 mm 5 mps 730 mmHg 97%
08:00 -2°C° 0 mm 6 mps 730 mmHg 97%
09:00 -1°C° 0 mm 5 mps 730 mmHg 98%
10:00 -1°C° 0 mm 5 mps 730 mmHg 98%
11:00 0°C° 0 mm 4 mps 730 mmHg 99%
12:00 0°C° 0.1 mm 4 mps 729 mmHg 99%
13:00 0°C° 0.1 mm 4 mps 729 mmHg 99%
14:00 0°C° 0.1 mm 4 mps 728 mmHg 99%
15:00 0°C° 0.5 mm 4 mps 728 mmHg 99%
16:00 0°C° 0.5 mm 4 mps 727 mmHg 99%
17:00 0°C° 0.5 mm 4 mps 727 mmHg 99%
18:00 0°C° 0.6 mm 4 mps 726 mmHg 99%
19:00 0°C° 0.6 mm 4 mps 726 mmHg 99%
20:00 0°C° 0.6 mm 4 mps 725 mmHg 99%
21:00 0°C° 1 mm 4 mps 725 mmHg 99%
22:00 +1°C° 1 mm 3 mps 725 mmHg 99%
23:00 +1°C° 1 mm 3 mps 724 mmHg 99%

Tomorrow, 25 January, Monday

Time Temperature Precipitation Wind Pressure Humidity
00:00 0°C° 0.8 mm 4 mps 725 mmHg 99%
01:00 0°C° 0.8 mm 4 mps 725 mmHg 98%
02:00 0°C° 0.8 mm 5 mps 726 mmHg 98%
03:00 -1°C° 0.5 mm 5 mps 726 mmHg 98%
04:00 -1°C° 0.5 mm 5 mps 727 mmHg 97%
05:00 -2°C° 0.5 mm 6 mps 728 mmHg 97%
06:00 -1°C° 0 mm 5 mps 729 mmHg 97%
07:00 -1°C° 0 mm 5 mps 730 mmHg 96%
08:00 -2°C° 0 mm 5 mps 731 mmHg 96%
09:00 -2°C° 0 mm 4 mps 731 mmHg 96%
10:00 -2°C° 0 mm 4 mps 732 mmHg 96%
11:00 -1°C° 0 mm 3 mps 733 mmHg 95%
12:00 -1°C° 0 mm 3 mps 733 mmHg 95%
13:00 -1°C° 0 mm 2 mps 733 mmHg 95%
14:00 -1°C° 0 mm 2 mps 733 mmHg 95%
15:00 +1°C° 0 mm 1 mps 733 mmHg 96%
16:00 +1°C° 0 mm 1 mps 733 mmHg 96%
17:00 0°C° 0 mm 1 mps 733 mmHg 96%
18:00 0°C° 0 mm 1 mps 733 mmHg 96%
19:00 -2°C° 0 mm 2 mps 733 mmHg 96%
20:00 -2°C° 0 mm 2 mps 733 mmHg 95%
21:00 -1°C° 0 mm 3 mps 732 mmHg 95%
22:00 -2°C° 0 mm 4 mps 731 mmHg 94%
23:00 -3°C° 0 mm 6 mps 731 mmHg 94%

Day after tomorrow, 26 January, Tuesday

Time Temperature Precipitation Wind Pressure Humidity
00:00 -3°C° 0.7 mm 6 mps 730 mmHg 95%
01:00 -2°C° 0.7 mm 6 mps 729 mmHg 96%
02:00 -2°C° 0.7 mm 7 mps 728 mmHg 97%
03:00 -2°C° 1.5 mm 6 mps 727 mmHg 98%
04:00 -1°C° 1.5 mm 6 mps 726 mmHg 98%
05:00 -1°C° 1.5 mm 6 mps 726 mmHg 98%
06:00 0°C° 1.1 mm 5 mps 725 mmHg 98%
07:00 0°C° 1.1 mm 5 mps 725 mmHg 98%
08:00 0°C° 1.1 mm 5 mps 724 mmHg 98%
09:00 0°C° 0.8 mm 4 mps 724 mmHg 98%
10:00 0°C° 0.8 mm 4 mps 724 mmHg 98%
11:00 0°C° 0.8 mm 4 mps 724 mmHg 98%
12:00 +1°C° 0.2 mm 3 mps 724 mmHg 98%
13:00 +1°C° 0.2 mm 3 mps 724 mmHg 98%
14:00 0°C° 0.2 mm 3 mps 724 mmHg 98%
15:00 +1°C° 0.1 mm 2 mps 724 mmHg 98%
16:00 -1°C° 0.1 mm 2 mps 724 mmHg 97%
17:00 -1°C° 0.1 mm 2 mps 724 mmHg 96%
18:00 +1°C° 0.1 mm 1 mps 724 mmHg 97%
19:00 +1°C° 0.1 mm 1 mps 725 mmHg 98%
20:00 +1°C° 0.1 mm 1 mps 725 mmHg 98%
21:00 +1°C° 0.1 mm 1 mps 725 mmHg 98%
22:00 +1°C° 0.1 mm 1 mps 725 mmHg 98%
23:00 +1°C° 0.1 mm 1 mps 725 mmHg 98%

27 January, Wednesday

Time Temperature Precipitation Wind Pressure Humidity
00:00 +1°C° 0.3 mm 1 mps 725 mmHg 97%
01:00 -2°C° 0.3 mm 2 mps 726 mmHg 97%
02:00 -2°C° 0.3 mm 2 mps 726 mmHg 97%
03:00 -2°C° 0.2 mm 2 mps 726 mmHg 96%
04:00 -2°C° 0.2 mm 3 mps 726 mmHg 96%
05:00 -3°C° 0.2 mm 4 mps 726 mmHg 95%
06:00 -4°C° 0.1 mm 5 mps 727 mmHg 94%
07:00 -4°C° 0.1 mm 5 mps 727 mmHg 93%
08:00 -4°C° 0.1 mm 6 mps 727 mmHg 92%
09:00 -4°C° 0.1 mm 6 mps 728 mmHg 92%
10:00 -4°C° 0.1 mm 6 mps 728 mmHg 91%
11:00 -4°C° 0.1 mm 6 mps 729 mmHg 90%
12:00 -4°C° 0.1 mm 7 mps 729 mmHg 91%
13:00 -4°C° 0.1 mm 7 mps 730 mmHg 91%
14:00 -4°C° 0.1 mm 7 mps 730 mmHg 91%
15:00 -4°C° 0.1 mm 7 mps 731 mmHg 91%
16:00 -4°C° 0.1 mm 6 mps 731 mmHg 91%
17:00 -5°C° 0.1 mm 6 mps 732 mmHg 91%
18:00 -5°C° 0.1 mm 6 mps 732 mmHg 91%
19:00 -5°C° 0.1 mm 6 mps 732 mmHg 92%
20:00 -5°C° 0.1 mm 6 mps 733 mmHg 92%
21:00 -5°C° 0.1 mm 6 mps 733 mmHg 92%
22:00 -5°C° 0.1 mm 6 mps 734 mmHg 92%
23:00 -5°C° 0.1 mm 6 mps 734 mmHg 92%

28 January, Thursday

Time Temperature Precipitation Wind Pressure Humidity
00:00 -5°C° 0 mm 6 mps 734 mmHg 92%
01:00 -5°C° 0 mm 5 mps 734 mmHg 92%
02:00 -5°C° 0 mm 5 mps 735 mmHg 91%
03:00 -5°C° 0 mm 5 mps 735 mmHg 91%
04:00 -6°C° 0 mm 5 mps 735 mmHg 91%
05:00 -6°C° 0 mm 5 mps 735 mmHg 91%
06:00 -6°C° 0 mm 5 mps 735 mmHg 92%
07:00 -6°C° 0 mm 5 mps 735 mmHg 92%
08:00 -5°C° 0 mm 4 mps 736 mmHg 92%
09:00 -5°C° 0 mm 4 mps 736 mmHg 91%
10:00 -5°C° 0 mm 4 mps 736 mmHg 91%
11:00 -4°C° 0 mm 4 mps 736 mmHg 90%
12:00 -4°C° 0 mm 4 mps 736 mmHg 89%
13:00 -4°C° 0 mm 4 mps 736 mmHg 88%
14:00 -4°C° 0 mm 4 mps 736 mmHg 88%
15:00 -4°C° 0 mm 4 mps 736 mmHg 88%
16:00 -4°C° 0 mm 3 mps 736 mmHg 89%
17:00 -4°C° 0 mm 3 mps 736 mmHg 89%
18:00 -3°C° 0 mm 2 mps 736 mmHg 91%
19:00 -3°C° 0 mm 2 mps 736 mmHg 92%
20:00 -4°C° 0 mm 2 mps 736 mmHg 93%

29 January, Friday

Time Temperature Precipitation Wind Pressure Humidity
Show more